OpenBCM V1.07b12 (Linux)

Packet Radio Mailbox

DB0FHN

[JN59NK Nuernberg]

 Login: GUEST





  
CX7BY  > KEPS     11.04.03 05:31l 277 Lines 7261 Bytes #999 (0) @ AMSAT
BID : ORB03100.D
Read: DB0FHN GUEST
Subj: Orbital Elements  03100.MICROS
Path: DB0FHN<DB0ZWI<DB0CHZ<DB0ERF<DB0FBB<DB0GOS<ON0AR<ON0AR<IW8PGT<SP7MGD<
      ON0BEL<ON4HU<CX2ACB<CX7BY
Sent: 030411/0310Z @:CX7BY.MVD.URY.SA #:35748 [Montevideo] FBB $:ORB03100.D
From: CX7BY@CX7BY.MVD.URY.SA
To  : KEPS@AMSAT


HR AMSAT ORBITAL ELEMENTS FOR THE MICROSATS
FROM WA5QGD FORT WORTH,TX April 10, 2003
SEND SUBSCRIBE/UNSUBSCRIBE TO majordomo@amsat.org ONLY
BID: ORB03100.D
TO ALL RADIO AMATEURS BT

Satellite: UO-14
Catalog number: 20437
Epoch time:      03100.18311667
Element set:     205
Inclination:       98.2659 deg
RA of node:       141.3590 deg
Eccentricity:    0.0011829
Arg of perigee:    52.8660 deg
Mean anomaly:     307.3599 deg
Mean motion:   14.31256632 rev/day
Decay rate:       1.93e-06 rev/day^2
Epoch rev:           68973
Checksum:              300

Satellite: AO-16
Catalog number: 20439
Epoch time:      03100.18966093
Element set:     876
Inclination:       98.3064 deg
RA of node:       153.3374 deg
Eccentricity:    0.0011939
Arg of perigee:    59.1714 deg
Mean anomaly:     301.0632 deg
Mean motion:   14.31494544 rev/day
Decay rate:       2.48e-06 rev/day^2
Epoch rev:           68977
Checksum:              313

Satellite: WO-18
Catalog number: 20441
Epoch time:      03100.23746294
Element set:      54
Inclination:       98.3261 deg
RA of node:       156.5758 deg
Eccentricity:    0.0012689
Arg of perigee:    60.0718 deg
Mean anomaly:     300.1720 deg
Mean motion:   14.31575579 rev/day
Decay rate:       2.46e-06 rev/day^2
Epoch rev:           68983
Checksum:              300

Satellite: LO-19
Catalog number: 20442
Epoch time:      03100.14020736
Element set:     993
Inclination:       98.3386 deg
RA of node:       159.5962 deg
Eccentricity:    0.0013018
Arg of perigee:    57.9679 deg
Mean anomaly:     302.2765 deg
Mean motion:   14.31739526 rev/day
Decay rate:       2.60e-06 rev/day^2
Epoch rev:           68987
Checksum:              322

Satellite: UO-22
Catalog number: 21575
Epoch time:      03100.81710272
Element set:     770
Inclination:       98.1463 deg
RA of node:        90.3805 deg
Eccentricity:    0.0007389
Arg of perigee:   347.3788 deg
Mean anomaly:      12.7215 deg
Mean motion:   14.39195405 rev/day
Decay rate:       4.31e-06 rev/day^2
Epoch rev:           61565
Checksum:              293

Satellite: KO-23
Catalog number: 22077
Epoch time:      03099.94546127
Element set:    0207
Inclination:      066.0854 deg
RA of node:       020.2298 deg
Eccentricity:    0.0015672
Arg of perigee:   263.4695 deg
Mean anomaly:     096.4539 deg
Mean motion:   12.86410386 rev/day
Decay rate:       -3.7e-07 rev/day^2
Epoch rev:           50078
Checksum:              316

Satellite: AO-27
Catalog number: 22825
Epoch time:      03100.23815599
Element set:     528
Inclination:       98.2707 deg
RA of node:       127.3432 deg
Eccentricity:    0.0009354
Arg of perigee:   105.8646 deg
Mean anomaly:     254.3569 deg
Mean motion:   14.28962871 rev/day
Decay rate:       2.22e-06 rev/day^2
Epoch rev:           49711
Checksum:              315

Satellite: IO-26
Catalog number: 22826
Epoch time:      03100.12048358
Element set:     331
Inclination:       98.2703 deg
RA of node:       128.3681 deg
Eccentricity:    0.0009814
Arg of perigee:   105.3627 deg
Mean anomaly:     254.8638 deg
Mean motion:   14.29187358 rev/day
Decay rate:       2.10e-06 rev/day^2
Epoch rev:           49714
Checksum:              296

Satellite: KO-25
Catalog number: 22828
Epoch time:      03099.59882406
Element set:     468
Inclination:       98.2651 deg
RA of node:       128.1369 deg
Eccentricity:    0.0011053
Arg of perigee:    88.8762 deg
Mean anomaly:     271.3687 deg
Mean motion:   14.29526337 rev/day
Decay rate:       1.91e-06 rev/day^2
Epoch rev:           46527
Checksum:              341

Satellite: TO-31
Catalog number: 25396
Epoch time:      03099.93243589
Element set:    0857
Inclination:      098.6167 deg
RA of node:       176.0251 deg
Eccentricity:    0.0002503
Arg of perigee:   009.6193 deg
Mean anomaly:     350.5035 deg
Mean motion:   14.23527550 rev/day
Decay rate:       -4.3e-07 rev/day^2
Epoch rev:           24669
Checksum:              311

Satellite: GO-32
Catalog number: 25397
Epoch time:      03099.90358545
Element set:    0169
Inclination:      098.6139 deg
RA of node:       174.8155 deg
Eccentricity:    0.0001732
Arg of perigee:   034.2949 deg
Mean anomaly:     325.8337 deg
Mean motion:   14.22972411 rev/day
Decay rate:       1.16e-06 rev/day^2
Epoch rev:           24665
Checksum:              323

Satellite: UO-36
Catalog number: 25693
Epoch time:      03100.75784747
Element set:     864
Inclination:       64.5595 deg
RA of node:       214.1005 deg
Eccentricity:    0.0025099
Arg of perigee:   313.6132 deg
Mean anomaly:      46.2904 deg
Mean motion:   14.76448086 rev/day
Decay rate:       4.07e-06 rev/day^2
Epoch rev:           21381
Checksum:              305

Satellite: AO-37
Catalog number: 26065
Epoch time:      03100.39255225
Element set:     776
Inclination:      100.1988 deg
RA of node:       164.3277 deg
Eccentricity:    0.0037895
Arg of perigee:   144.4970 deg
Mean anomaly:     215.8742 deg
Mean motion:   14.35535615 rev/day
Decay rate:       2.81e-06 rev/day^2
Epoch rev:           16767
Checksum:              319

Satellite: SO-41
Catalog number: 26545
Epoch time:      03100.79768571
Element set:     436
Inclination:       64.5582 deg
RA of node:       234.4543 deg
Eccentricity:    0.0048258
Arg of perigee:   230.5147 deg
Mean anomaly:     129.1694 deg
Mean motion:   14.79121806 rev/day
Decay rate:      1.231e-05 rev/day^2
Epoch rev:           13679
Checksum:              311

Satellite: MO-46
Catalog number: 26548
Epoch time:      03100.47033354
Element set:     439
Inclination:       64.5570 deg
RA of node:       227.7778 deg
Eccentricity:    0.0041482
Arg of perigee:   230.7376 deg
Mean anomaly:     129.0014 deg
Mean motion:   14.81451933 rev/day
Decay rate:      1.595e-05 rev/day^2
Epoch rev:           13690
Checksum:              302

Satellite: SO-42
Catalog number: 26549
Epoch time:      03099.85578435
Element set:    0735
Inclination:      064.5523 deg
RA of node:       241.7214 deg
Eccentricity:    0.0052845
Arg of perigee:   230.1741 deg
Mean anomaly:     129.4700 deg
Mean motion:   14.78051865 rev/day
Decay rate:      1.717e-05 rev/day^2
Epoch rev:           13657
Checksum:              316

Satellite: NO-44
Catalog number: 26931
Epoch time:      03100.82307789
Element set:     446
Inclination:       67.0468 deg
RA of node:       123.6627 deg
Eccentricity:    0.0005765
Arg of perigee:   273.3410 deg
Mean anomaly:      86.7032 deg
Mean motion:   14.29146073 rev/day
Decay rate:       2.40e-06 rev/day^2
Epoch rev:            7967
Checksum:              300

Satellite: AO-49
Catalog number: 27605
Epoch time:      03100.89398582
Element set:     104
Inclination:       64.5500 deg
RA of node:        41.3740 deg
Eccentricity:    0.0034849
Arg of perigee:    90.3099 deg
Mean anomaly:     270.1990 deg
Mean motion:   14.71457656 rev/day
Decay rate:       9.15e-06 rev/day^2
Epoch rev:            1636
Checksum:              306

Satellite: SO-50
Catalog number: 27607
Epoch time:      03100.87107481
Element set:      97
Inclination:       64.5497 deg
RA of node:        42.2444 deg
Eccentricity:    0.0036194
Arg of perigee:    86.2624 deg
Mean anomaly:     274.2574 deg
Mean motion:   14.70027813 rev/day
Decay rate:      1.411e-05 rev/day^2
Epoch rev:            1634
Checksum:              283



Read previous mail | Read next mail


 16.09.2025 16:18:11lGo back Go up